Location: Wolf Lake
(46.8518°N, 80.6381°W)
Time: 20:37:30
(UTC-04:00)

ISS - Pass Details

Date: 31 May 2022
Orbit: 414 x 420 km, 51.6° (Epoch: 29 June)

Event Time Altitude Azimuth Distance (km) Brightness Sun altitude
Rises 21:48:58 0° 291° (WNW) 2,370 1.6 -6.3°
Reaches altitude 10° 21:51:17 10° 278° (W) 1,501 0.0 -6.6°
Maximum altitude 21:54:09 26° 220° (SW) 860 -2.2 -6.9°
Drops below altitude 10° 21:57:00 10° 161° (SSE) 1,488 -1.5 -7.3°
Enters shadow 21:57:26 - 158° (SSE) 1,646 -1.3 -7.3°
